Theta_e
299 299 299 299 300 299 298 297 297 295 294 294 296 299 299 298 298 298 297 296 294 294 294 293 293 294 291 288 286 285 283 282 280 278 279 280 279 279 280 279 280 280 279
298 297 298 298 298 297 296 295 293 294 291 293 292 294 295 296 296 296 296 296 294 293 293 293 293 293 289 287 286 284 283 283 280 277 277 277 278 279 279 278 279 279 279
296 296 296 296 296 295 295 293 292 291 289 287 288 290 291 292 292 294 295 294 293 294 293 292 291 289 287 285 286 283 283 281 280 278 276 277 276 278 277 278 278 278 279
296 295 295 294 295 294 293 291 290 288 287 286 286 288 288 289 290 291 291 292 291 292 292 291 290 286 287 283 283 282 282 280 279 278 277 277 277 278 278 277 276 277 277
295 294 295 294 293 293 290 289 288 286 286 285 284 284 284 287 288 288 288 290 289 289 287 287 285 285 286 285 283 281 281 280 279 278 276 276 276 276 276 277 277 277 277
293 293 293 291 290 289 289 288 286 286 284 284 283 283 283 284 288 290 289 288 287 286 284 283 283 283 284 286 286 285 284 280 279 278 277 276 276 277 278 276 276 274 273
288 289 289 289 288 288 288 286 286 285 283 283 283 283 283 284 288 289 289 286 285 285 284 283 281 283 283 284 286 287 286 286 284 280 278 278 277 278 278 276 276 276 275
287 287 287 286 286 287 286 286 285 283 283 283 283 282 283 283 287 288 289 286 284 284 284 282 282 281 283 283 283 282 282 283 283 283 282 281 282 280 280 279 278 277 275
285 286 286 286 285 285 284 285 284 282 281 282 281 281 281 283 287 288 288 284 283 282 282 282 282 281 284 285 281 280 280 281 285 286 284 285 285 284 281 277 274 273 272
284 285 285 284 283 284 285 284 280 283 283 282 281 281 281 282 286 288 288 284 282 281 281 281 282 282 284 286 281 280 278 279 281 281 281 283 284 283 282 279 276 273 271
283 283 283 282 282 283 283 278 277 279 278 277 279 279 280 281 282 287 288 284 282 280 279 279 280 284 285 286 284 280 281 282 282 280 279 279 280 280 280 278 277 276 272
281 280 280 280 280 281 278 276 274 275 276 277 278 279 280 281 282 285 288 289 284 280 279 279 280 284 285 286 284 284 287 283 280 278 278 277 278 278 278 278 277 277 276
279 279 279 278 278 276 274 275 274 275 278 279 279 280 279 279 280 284 286 288 285 281 280 280 281 284 285 285 285 286 283 279 278 276 276 276 278 279 278 276 276 275 274
278 279 279 277 278 279 277 278 280 279 280 280 279 279 279 278 278 280 282 285 286 283 281 280 281 283 284 285 284 285 282 278 278 277 276 276 276 275 274 274 273 272 268
278 278 278 278 277 280 280 280 280 282 282 281 281 280 279 277 278 281 282 283 284 282 280 280 280 280 280 282 283 283 280 278 276 277 275 274 274 274 274 273 272 271 268
277 279 278 277 277 276 279 280 283 284 284 284 285 283 280 283 283 283 284 285 286 284 279 278 278 279 279 280 281 281 279 278 277 276 276 275 274 273 273 272 273 271 270
278 280 280 281 280 279 275 278 278 280 285 285 285 285 285 282 283 284 285 285 286 284 278 278 278 279 278 279 280 280 279 279 278 277 276 276 275 275 273 272 272 270 270
274 279 282 282 281 278 276 276 278 275 278 279 283 285 285 285 284 285 285 285 283 283 280 279 279 279 279 279 279 280 279 279 278 278 277 277 276 275 273 272 271 269 269
268 273 278 282 281 279 277 274 277 278 278 279 278 281 284 286 286 286 285 282 281 281 280 279 279 279 280 280 279 280 280 278 278 278 278 277 276 275 273 272 270 270 267
266 269 274 279 281 279 279 276 278 278 278 277 277 279 277 281 280 281 283 281 278 278 281 280 280 280 280 279 279 279 278 277 277 277 277 277 276 275 274 271 269 265 264
265 268 271 275 280 280 279 278 278 278 278 277 277 275 281 277 277 275 278 280 278 277 277 278 280 281 281 280 280 279 278 277 277 276 276 274 272 272 270 269 267 265 263
265 267 270 275 278 279 279 279 278 279 279 278 276 276 282 279 277 275 275 277 277 277 277 277 278 279 279 280 280 279 278 276 275 273 271 270 269 267 266 265 264 262 261
267 269 271 273 274 275 275 275 276 276 275 275 275 273 274 275 275 274 274 274 273 271 269 269 269 268 267 269 271 275 275 272 271 270 268 266 265 264 264 262 261 260 259
266 268 268 269 269 270 270 270 270 270 270 269 269 268 268 269 268 267 267 266 266 265 265 265 267 266 265 264 265 266 265 264 265 267 266 265 264 263 262 260 260 259 259
263 264 265 265 265 266 266 265 265 265 265 265 264 264 263 264 263 261 262 263 263 262 261 261 262 263 263 262 262 261 265 265 263 264 264 264 262 261 260 260 258 256 256
261 262 262 262 262 263 263 263 262 262 262 262 261 261 261 260 259 259 258 259 258 258 258 258 258 259 259 259 259 263 266 264 262 262 261 261 260 259 258 257 256 255 254
Wind_Speed
3 3 5 6 6 6 7 7 8 6 8 9 11 11 11 11 11 12 12 11 14 14 13 14 15 14 9 8 7 7 7 3 3 0 2 4 9 9 7 6 6 5 4
4 4 6 6 6 6 6 7 7 8 7 9 8 10 11 11 11 13 13 12 15 15 15 15 16 10 12 10 10 12 8 7 5 7 4 4 5 11 9 7 6 4 4
4 6 6 6 6 7 7 6 6 7 7 6 7 10 11 11 11 12 12 12 12 14 14 14 14 12 12 9 11 10 7 5 4 5 4 3 3 7 6 4 4 4 4
6 6 7 7 7 6 7 7 7 7 8 7 8 9 9 9 10 10 10 10 10 12 12 13 13 14 14 13 10 10 10 8 5 6 3 7 4 6 5 6 3 3 4
6 7 9 7 6 7 7 7 7 7 7 7 7 6 7 8 8 10 11 12 11 11 9 10 11 12 16 16 10 12 12 8 7 7 7 6 5 9 11 4 5 3 2
7 8 7 6 6 7 7 7 7 7 6 6 7 8 9 8 15 19 14 11 11 11 11 9 8 11 16 22 22 22 17 12 10 7 6 10 10 8 6 5 4 3 4
9 9 7 6 7 8 7 7 8 9 7 10 10 9 10 10 18 19 19 9 10 11 11 10 9 9 12 13 19 19 19 23 20 13 15 9 10 11 10 8 7 4 3
9 10 9 7 7 7 6 8 7 6 10 9 9 10 10 9 18 20 19 11 10 11 12 12 13 12 14 12 10 10 10 12 13 8 9 9 6 12 13 9 9 5 2
9 9 9 7 9 7 7 8 7 5 6 8 5 9 10 10 18 19 16 10 9 10 10 11 12 13 20 22 13 14 12 9 10 12 10 11 16 19 15 9 5 5 3
8 10 9 7 7 9 9 7 4 6 9 6 7 8 11 11 16 20 19 9 10 8 8 10 17 13 23 26 14 14 14 12 9 8 8 11 10 14 20 7 11 6 3
7 8 9 7 7 8 8 3 4 6 4 5 7 7 9 9 10 20 24 10 9 9 9 8 8 22 24 27 23 13 14 11 15 9 7 6 6 7 7 6 7 6 5
6 7 7 7 6 5 6 4 3 3 5 6 7 6 6 7 13 18 24 23 16 9 9 7 8 22 23 26 20 21 19 16 8 8 7 7 7 8 8 8 7 5 3
9 10 8 7 6 4 4 5 2 3 5 6 6 7 6 5 6 19 21 24 21 9 6 10 16 22 23 23 24 18 15 7 9 8 7 7 7 5 5 4 4 5 4
11 12 9 6 7 5 3 3 5 5 6 6 6 7 6 5 6 7 8 11 18 14 12 9 12 16 18 16 12 16 8 7 9 8 7 5 5 5 6 5 5 4 2
11 10 10 7 6 7 5 6 7 7 8 7 7 7 6 7 9 12 11 8 7 12 10 7 8 8 10 10 8 8 8 7 6 6 6 6 6 6 6 5 3 4 5
13 10 7 5 5 5 6 6 12 16 14 17 16 11 6 14 12 17 19 19 17 22 7 8 9 9 9 9 8 7 7 10 8 8 7 7 7 8 7 5 6 6 7
14 13 9 8 7 6 4 6 6 5 15 15 16 15 16 10 16 15 16 17 19 22 8 8 8 8 8 8 8 9 8 8 9 8 7 8 7 7 8 7 6 6 6
14 18 11 9 7 6 5 5 5 3 5 3 6 11 13 14 13 14 13 12 8 14 7 7 8 8 8 9 9 8 7 6 7 7 7 8 8 8 7 7 8 8 7
12 10 11 10 8 8 6 4 6 5 5 5 2 5 9 14 14 11 11 5 4 6 6 6 6 6 7 7 8 8 8 8 8 7 8 8 8 7 7 7 7 10 7
11 15 14 11 9 7 6 5 5 5 4 3 4 5 1 3 2 2 4 5 3 1 5 7 6 5 6 6 6 7 7 7 7 7 8 8 7 8 8 8 7 8 6
9 10 14 10 10 7 6 6 5 5 5 4 5 4 10 2 2 2 2 3 4 4 3 2 5 7 8 8 8 8 8 8 8 8 7 6 7 7 5 6 6 5 5
9 10 10 10 8 7 5 5 5 5 5 5 3 1 6 3 2 2 2 2 3 4 4 5 4 4 3 4 6 7 7 7 6 5 6 6 6 5 5 5 6 4 5
9 10 9 8 5 4 1 1 1 1 3 3 3 3 3 3 3 3 3 3 3 4 3 2 3 3 3 3 2 2 5 6 6 6 6 6 6 6 6 5 5 4 5
8 7 6 5 4 3 3 4 4 5 4 4 4 3 3 4 4 5 5 4 5 5 5 4 4 5 4 4 3 3 3 3 4 5 8 6 6 7 5 4 6 5 6
7 7 6 6 5 5 5 6 5 4 5 4 4 4 4 4 4 4 4 4 4 4 4 4 3 5 5 5 5 4 4 6 4 6 4 6 7 8 6 5 5 4 4
8 8 7 7 7 7 6 5 5 5 4 5 5 5 5 5 5 4 3 4 3 3 4 4 5 7 7 5 5 4 5 6 5 5 4 5 6 5 5 5 8 4 6
Wind_Direction
227 220 223 224 218 209 202 199 200 192 187 189 199 206 210 208 201 196 200 197 202 205 208 213 216 217 208 194 184 187 185 133 107 82 123 169 169 172 178 171 183 186 210
286 262 244 238 225 224 221 215 190 198 192 196 194 199 206 210 204 205 205 203 205 207 208 210 214 208 206 193 191 191 178 160 144 166 168 152 176 182 165 167 186 188 186
286 270 262 251 237 235 230 216 205 199 197 191 189 203 206 208 205 211 214 211 210 213 212 210 210 197 198 189 194 184 166 161 156 154 147 153 133 166 161 170 178 189 192
271 267 265 249 241 235 231 218 210 204 199 195 202 209 207 207 212 212 211 211 211 215 212 209 209 199 199 185 180 167 170 161 162 131 109 166 152 156 158 166 174 199 200
271 259 255 243 231 232 226 218 213 209 214 198 194 208 203 208 212 209 209 213 212 214 208 201 198 197 188 179 166 175 169 163 140 149 167 162 153 159 183 161 183 169 231
266 263 270 259 240 232 228 218 207 212 207 198 211 211 213 219 223 219 211 213 211 208 203 195 186 172 181 184 187 180 173 153 164 155 180 172 169 164 153 168 152 146 215
319 308 294 271 248 244 239 216 222 214 194 210 210 205 220 220 225 224 219 216 210 210 201 190 183 190 185 182 185 176 180 190 183 176 166 172 160 172 162 177 173 173 169
317 315 311 296 272 261 233 231 226 203 211 217 218 213 219 225 224 224 217 212 212 206 202 192 188 179 182 177 169 178 189 192 184 173 177 147 162 175 181 172 171 138 92
316 311 306 300 286 268 248 241 227 214 217 210 197 210 219 229 224 221 211 204 216 209 199 193 192 186 187 180 169 171 168 166 178 136 120 173 196 170 154 131 129 128 206
313 308 304 291 270 272 262 248 211 230 233 219 220 212 212 223 223 218 210 199 208 206 201 200 194 187 188 185 178 174 172 173 146 133 162 173 157 172 169 163 156 178 148
300 301 303 299 285 270 270 229 234 223 213 226 229 217 215 214 222 221 218 203 207 203 199 194 193 196 194 190 187 184 185 145 178 164 156 150 151 173 183 181 186 166 157
287 290 286 284 289 285 259 261 253 218 233 223 219 234 225 217 217 224 222 216 209 201 201 194 187 193 194 196 189 186 176 151 154 160 159 162 184 194 189 184 182 179 169
306 295 289 292 290 275 249 260 261 232 244 242 234 234 221 215 217 225 228 227 206 204 192 191 188 192 196 195 191 185 157 164 149 146 177 189 204 199 158 136 140 152 150
294 293 290 284 289 264 242 232 231 226 243 241 239 245 237 219 212 212 217 228 206 195 188 190 193 192 192 193 192 193 171 174 157 172 182 175 152 158 183 173 181 162 121
283 278 277 270 263 273 243 235 241 234 223 239 235 235 229 229 226 213 208 211 194 180 160 174 191 193 195 196 191 180 161 160 164 160 159 174 173 180 192 176 160 164 183
293 282 271 259 255 242 256 262 243 252 255 251 249 243 241 244 244 221 218 214 188 168 158 179 190 192 191 191 185 181 165 175 177 174 174 174 191 191 192 180 183 192 199
289 286 278 266 260 254 231 247 260 250 250 252 249 248 253 249 245 231 226 219 190 175 183 186 193 187 182 185 193 199 196 178 170 178 182 186 194 192 188 186 192 190 203
300 296 281 274 263 249 240 235 237 215 246 231 250 244 241 245 246 237 226 212 193 193 188 184 190 191 190 189 192 194 177 171 177 184 190 192 195 194 186 192 195 192 196
298 291 290 281 258 242 234 225 231 228 225 233 208 252 222 233 233 224 208 192 198 195 179 183 190 187 185 183 186 190 189 186 190 197 198 203 196 191 193 196 191 193 167
292 288 286 283 266 241 226 220 227 225 239 241 240 239 211 182 192 178 183 174 147 162 171 176 173 182 186 182 179 185 188 184 191 198 203 203 197 198 197 183 176 170 185
292 292 287 280 272 249 233 222 216 205 203 208 230 212 211 179 151 153 148 136 157 159 159 137 190 193 189 187 190 191 195 200 199 199 200 192 180 187 169 171 168 165 158
286 286 286 287 285 256 236 227 216 209 196 192 166 144 230 164 148 146 151 157 165 175 176 180 185 184 176 180 188 189 192 186 187 177 166 165 165 152 151 148 152 152 153
295 294 292 290 286 286 278 317 228 196 140 136 130 106 57 74 94 60 50 34 44 52 28 59 122 101 54 69 65 159 182 183 179 166 159 156 153 153 158 156 156 148 164
315 319 327 335 343 357 3 66 15 20 45 58 58 57 58 44 50 61 59 48 51 36 29 34 50 80 73 66 64 62 83 104 127 154 149 154 150 145 146 142 168 167 164
343 348 5 5 13 25 26 27 52 39 38 38 51 49 45 64 59 48 52 50 55 58 44 31 43 74 82 88 82 84 107 108 113 125 123 133 145 155 159 164 152 136 135
360 6 12 16 21 18 27 37 34 35 43 48 45 47 55 59 57 51 49 62 62 59 60 46 48 61 64 62 71 83 96 106 107 115 114 125 139 149 152 147 155 153 154